EHI
0 0 0 0 0 0 0 0 0 0 0 0 0 0 0 0 0 0 1 2 5 8 9 9 10 10 8 8 8 5 1 0 0 0 0 0 0 0 0 0 0 0 0 1
0 0 0 0 0 0 0 0 0 0 0 0 0 0 0 0 0 1 2 3 5 7 7 8 8 8 8 9 9 6 2 0 0 0 0 0 0 0 0 0 0 0 1 2
0 0 0 0 0 0 0 0 0 0 0 0 0 0 0 0 0 1 3 4 4 5 6 7 6 6 7 8 9 7 4 2 1 2 2 2 1 0 0 0 0 1 2 3
0 0 0 0 0 0 0 1 1 0 0 0 0 0 0 0 0 1 3 5 5 5 5 6 6 6 6 6 7 7 6 5 4 5 7 7 4 1 0 0 0 1 2 2
0 0 0 0 0 0 0 1 1 0 0 0 0 0 0 0 0 1 4 6 6 5 4 4 6 7 6 5 5 7 7 6 6 8 11 12 9 4 1 0 0 1 1 2
0 0 0 0 0 0 0 0 0 0 0 0 0 0 0 0 0 0 2 5 6 5 3 3 3 5 6 6 6 7 6 6 7 9 11 13 11 6 2 1 0 1 2 2
0 0 0 0 0 0 0 0 0 0 0 0 0 0 0 0 0 1 2 5 7 6 4 3 3 3 5 6 7 7 6 5 6 8 10 12 11 6 3 1 0 1 1 1
0 0 0 0 0 0 0 0 0 0 0 0 0 0 0 0 1 2 4 6 8 7 6 5 5 5 6 7 8 8 6 5 7 9 9 10 8 5 2 1 0 0 0 0
0 0 0 0 0 0 0 0 0 0 0 0 0 0 0 0 1 4 6 7 8 7 6 6 6 6 7 8 8 8 5 6 8 9 7 7 5 4 2 1 0 0 0 0
0 0 0 0 0 0 0 0 0 0 0 0 0 0 1 1 1 4 6 8 8 6 4 4 4 4 5 6 7 6 5 5 8 8 6 5 4 3 1 0 0 0 0 0
0 0 0 0 0 0 0 0 0 0 0 0 0 0 1 2 2 4 7 8 8 4 1 1 3 4 5 6 6 5 4 5 6 6 5 4 3 2 1 0 0 0 0 0
0 0 0 0 0 0 0 0 0 0 0 0 0 0 2 2 2 5 7 7 5 3 1 2 4 6 7 7 6 5 5 5 5 4 3 3 2 1 0 0 0 0 0 0
0 0 0 0 0 0 0 0 0 0 0 0 0 0 1 2 2 3 4 3 2 2 3 5 6 7 7 8 8 7 6 5 4 2 1 1 1 0 0 0 0 0 0 0
0 0 0 0 0 0 0 0 0 0 0 0 0 0 1 1 1 1 2 2 1 3 5 6 7 7 7 8 8 7 5 4 3 2 0 0 0 0 0 0 0 0 0 0
0 0 0 0 0 0 0 0 0 0 0 0 0 0 0 0 0 1 2 2 2 3 4 6 8 9 9 8 7 6 5 3 3 1 1 1 1 1 1 0 1 1 0 0
0 0 0 0 0 0 0 0 0 0 1 0 0 0 0 0 0 2 2 2 3 3 4 6 7 9 10 9 8 7 6 4 3 2 2 2 3 3 3 2 3 2 1 0
0 0 0 0 0 0 0 0 0 0 0 0 0 0 0 0 0 1 2 3 3 5 6 6 7 8 9 9 8 8 6 5 4 4 3 3 3 3 4 5 5 4 2 1
0 0 0 0 0 0 0 0 0 0 0 0 0 0 0 0 1 1 3 3 5 7 7 7 7 7 8 8 7 6 5 6 5 4 4 3 2 2 3 6 6 5 4 4
0 0 0 0 0 0 0 0 0 0 0 0 0 0 1 1 2 2 3 3 5 6 7 7 7 6 5 4 5 5 6 6 5 4 4 3 2 2 4 6 6 6 6 6
0 0 0 0 0 0 0 0 0 0 0 0 0 0 1 1 1 2 3 3 3 5 6 7 7 6 3 2 4 6 8 7 5 4 3 2 2 3 5 6 6 6 7 7
0 0 0 0 0 0 0 0 0 0 0 0 0 0 1 1 0 1 3 3 4 5 7 8 9 7 4 4 5 8 9 7 5 4 3 3 3 4 6 6 6 6 7 7
0 0 0 0 0 0 0 0 0 0 0 0 0 0 0 0 1 2 5 7 8 9 10 10 10 9 7 6 7 9 8 7 5 3 3 3 3 4 5 5 5 5 6 7
0 0 0 0 0 0 0 0 0 0 0 0 1 1 1 1 2 4 9 11 12 12 12 12 11 9 8 7 7 7 6 4 3 2 2 1 1 3 4 4 4 5 6 6
0 0 0 0 0 0 0 0 0 0 0 0 1 3 3 3 3 6 10 12 12 12 12 11 10 8 7 6 5 4 2 1 1 0 0 0 0 1 1 2 3 4 5 5
0 0 0 0 0 0 0 0 0 0 0 0 2 5 5 4 4 7 10 12 12 11 10 10 9 8 6 3 2 1 0 0 0 0 0 0 0 0 0 1 1 1 2 2
0 0 0 0 0 0 1 1 1 0 0 1 3 6 6 5 6 8 10 12 12 11 10 10 10 8 5 2 0 0 0 0 0 0 0 0 0 0 0 0 0 0 0 0
Wind_Speed
2 3 5 8 9 6 3 3 4 5 2 1 2 3 2 3 4 4 4 5 5 6 4 3 4 5 5 5 4 4 5 4 4 2 2 2 1 1 1 1 1 1 1 1
2 5 8 5 5 4 4 3 4 4 1 2 1 3 2 3 5 6 6 6 6 4 2 3 4 4 6 6 5 4 5 4 4 3 2 2 2 1 1 1 0 0 1 1
7 6 3 4 4 4 4 5 4 3 2 3 1 5 2 1 2 1 3 4 5 6 6 5 5 5 5 6 6 6 5 4 4 3 2 2 2 1 1 1 1 1 0 1
6 5 2 3 4 5 4 5 5 3 1 1 1 3 6 2 2 3 3 3 5 5 6 5 5 5 6 6 5 5 5 4 4 4 3 4 3 2 2 1 1 1 1 0
6 3 4 4 6 5 5 2 2 2 3 1 1 1 7 1 3 5 6 5 5 6 7 7 6 6 5 5 5 5 5 4 4 3 4 4 2 2 1 0 0 1 1 0
5 3 4 5 2 4 4 5 5 5 4 1 2 3 7 3 5 4 4 5 6 6 6 6 5 5 5 5 5 5 5 4 4 5 4 4 3 2 2 1 0 1 1 1
4 3 2 3 1 1 4 5 3 4 3 4 2 2 8 5 4 4 5 5 6 6 6 6 6 6 6 6 6 5 6 5 4 4 4 4 3 3 3 2 2 1 0 1
2 6 4 3 6 6 4 8 7 5 5 4 1 4 7 3 2 2 3 4 4 5 5 6 6 6 6 6 6 6 6 5 4 4 4 3 3 2 2 2 2 2 2 2
6 7 4 2 3 7 5 4 5 6 2 1 4 5 7 1 1 1 2 4 5 5 5 5 4 5 5 5 5 5 5 4 4 4 4 3 3 3 2 2 1 1 1 1
8 4 5 2 3 2 4 7 5 6 5 3 4 4 5 3 4 2 3 5 5 4 4 4 4 4 4 4 4 4 4 4 4 3 3 3 3 2 2 2 1 1 1 1
5 4 3 1 3 4 3 3 4 5 5 6 4 7 5 7 6 5 5 5 5 5 4 4 4 3 3 4 4 4 4 3 3 3 3 2 2 2 2 2 2 2 2 2
3 5 2 5 4 2 4 6 7 5 4 4 4 7 4 4 4 4 4 3 3 4 4 4 3 3 3 4 4 4 4 4 3 3 3 3 2 2 2 2 2 1 1 1
4 6 2 5 5 3 1 2 4 6 5 5 4 7 2 1 1 1 2 2 2 4 4 4 4 4 4 3 3 3 3 3 3 3 3 2 2 2 2 2 1 1 1 0
5 4 6 8 6 3 1 1 3 5 4 4 6 6 4 2 2 1 1 2 2 3 4 4 4 3 3 3 3 2 2 2 3 3 3 2 2 2 2 2 1 1 1 1
4 3 2 2 2 2 1 2 4 4 6 7 6 6 7 6 5 4 3 3 2 3 3 4 4 4 3 3 3 3 2 2 2 3 3 2 2 1 1 1 1 1 1 1
4 2 1 1 1 0 0 2 3 3 3 4 2 5 5 2 3 2 2 3 3 3 3 4 4 4 4 4 4 4 3 3 3 3 3 2 1 1 1 1 1 1 1 1
1 3 2 2 2 2 2 4 4 3 3 5 5 6 2 2 4 5 4 4 4 3 3 4 4 4 4 4 4 4 4 3 3 3 2 2 2 2 2 2 1 1 1 1
4 3 3 1 1 3 6 2 3 3 2 3 3 3 4 4 4 3 3 5 4 3 3 3 2 2 2 2 3 2 2 3 2 2 1 2 2 2 2 1 1 1 1 1
4 6 4 3 2 4 5 2 2 3 2 2 3 2 2 2 3 1 1 2 4 4 3 3 3 3 2 2 3 3 2 2 2 2 2 2 2 2 1 1 2 1 1 1
4 4 5 4 3 5 6 3 1 3 2 2 2 3 3 4 2 4 2 1 2 2 2 2 2 2 3 2 3 4 3 2 2 2 2 2 2 2 2 2 1 0 1 1
3 3 3 3 3 6 5 4 1 3 5 2 2 4 4 5 4 3 2 1 2 2 2 3 3 2 1 2 3 3 2 2 2 1 1 1 1 2 2 2 1 1 1 0
2 2 2 3 2 6 3 2 3 5 2 1 2 3 3 2 1 2 3 2 2 3 3 4 4 2 1 2 3 3 1 1 1 1 1 1 1 1 2 2 1 1 1 0
2 4 4 5 6 4 2 3 3 1 1 2 2 2 3 3 1 2 2 2 2 3 3 3 4 3 2 1 3 3 1 1 2 2 1 1 1 0 1 2 1 1 1 0
2 1 2 2 4 4 3 3 2 1 1 1 1 1 3 3 3 3 2 2 2 3 3 3 4 3 1 1 1 1 1 1 2 1 1 1 1 0 1 1 1 1 1 1
3 1 1 3 5 5 4 3 2 1 2 3 3 2 3 5 4 3 3 2 2 2 2 3 3 3 2 1 1 1 1 2 2 1 1 1 1 1 0 0 1 1 2 3
4 4 4 5 6 4 6 4 2 1 0 1 2 2 1 4 4 3 3 2 2 2 2 2 2 2 1 1 0 0 1 2 2 1 1 1 1 1 1 0 2 2 1 2
Wind_Direction
135 116 210 212 203 204 190 209 263 271 267 180 231 259 254 172 178 195 200 203 210 217 206 178 172 164 154 156 164 172 165 163 155 152 159 164 197 200 201 228 233 224 200 180
61 247 231 201 188 190 204 228 257 290 331 155 241 282 255 190 197 203 201 205 210 206 185 174 173 172 168 169 170 173 175 172 175 174 159 159 159 182 201 265 316 265 207 197
201 239 198 171 188 197 227 207 221 231 358 44 55 324 299 242 218 203 205 204 204 194 190 185 183 185 176 178 179 181 184 181 172 160 126 103 81 54 31 348 316 307 252 202
231 247 198 188 219 189 254 223 196 186 118 308 97 282 292 260 265 234 223 203 201 190 179 183 188 185 189 191 181 182 175 176 172 158 154 154 159 178 213 220 259 307 312 255
238 217 194 213 228 186 219 148 122 121 131 54 28 162 285 323 267 248 229 211 199 188 182 181 187 189 191 183 170 171 167 166 159 165 173 169 173 185 179 123 34 331 334 327
240 235 202 210 228 170 142 70 54 49 70 333 249 169 277 247 231 243 222 201 194 183 178 178 179 173 177 170 160 162 165 168 163 167 177 177 177 169 150 148 182 317 333 334
296 284 239 172 124 52 111 99 37 358 8 257 242 183 250 252 230 221 212 199 192 177 174 178 177 173 175 169 166 166 166 174 171 171 183 189 190 178 179 184 190 201 270 287
211 275 241 195 184 182 181 149 163 195 219 267 293 229 252 256 263 229 204 182 173 170 176 183 182 176 177 173 167 167 170 175 171 177 188 191 186 184 196 196 190 199 225 246
187 248 275 230 192 149 152 182 170 137 145 260 274 279 300 324 355 218 182 167 178 184 180 180 177 174 171 167 171 171 169 166 170 185 180 178 181 184 194 199 194 210 240 252
167 227 275 280 78 46 144 148 110 125 151 230 274 262 249 249 247 233 194 197 199 179 168 163 173 176 167 164 162 151 161 172 174 174 171 163 182 184 179 170 191 208 232 250
150 173 291 17 169 188 119 113 116 122 151 162 227 262 229 214 212 208 206 197 187 178 176 176 181 165 152 146 150 151 160 165 159 159 162 150 164 178 179 189 217 217 212 207
154 131 228 264 269 217 172 167 150 153 202 174 181 261 282 208 205 189 196 194 186 166 166 163 159 147 144 149 157 165 165 168 171 163 153 164 167 175 189 211 235 218 208 210
138 116 78 343 338 351 87 153 148 129 123 154 176 258 306 62 135 164 169 181 169 158 157 150 147 152 158 159 165 177 171 172 165 152 153 166 173 180 207 231 240 217 192 202
113 117 161 193 217 214 235 189 148 131 149 187 214 234 279 250 206 193 185 189 157 162 160 151 153 161 166 169 174 170 173 166 153 153 160 174 196 208 220 225 221 215 200 201
88 123 175 218 234 188 209 222 172 170 180 181 219 220 241 223 202 192 184 172 148 149 159 166 173 176 175 175 170 163 176 174 161 155 167 196 204 196 206 215 219 217 216 233
58 110 86 350 65 72 349 290 208 198 176 189 196 252 251 198 140 158 177 174 188 188 187 184 184 182 183 187 190 174 178 181 167 168 185 192 180 182 200 209 202 191 211 231
68 120 106 268 307 47 281 250 209 193 198 178 202 233 175 163 180 190 190 196 208 205 206 198 194 195 198 196 189 187 188 173 166 176 185 177 184 193 204 201 173 189 210 216
144 120 135 176 66 217 243 256 197 174 210 204 211 213 187 201 200 197 186 181 189 193 202 199 189 194 202 186 176 167 156 154 161 174 191 189 185 196 197 183 203 215 202 209
161 142 129 131 175 262 290 273 181 169 248 225 200 197 158 88 68 0 228 177 186 190 189 185 175 164 154 160 168 147 139 141 152 176 203 208 191 192 187 202 226 221 207 257
63 96 117 129 160 225 248 290 270 120 281 272 178 177 154 117 135 248 222 195 182 176 150 141 133 127 139 154 151 146 149 153 187 211 206 200 185 179 189 206 226 231 197 245
35 49 112 155 200 256 268 311 70 155 238 261 195 186 172 182 200 215 169 183 166 150 133 122 113 112 132 149 140 143 149 181 199 212 192 169 176 181 185 179 184 159 146 80
175 154 183 150 184 254 305 64 163 223 273 230 211 198 184 191 122 136 148 145 126 116 110 112 106 102 107 136 126 129 162 209 141 133 130 134 126 177 147 136 120 121 134 140
195 195 194 191 213 251 291 244 266 207 225 248 210 208 158 144 132 116 120 112 104 115 111 107 112 106 85 98 128 147 187 161 136 131 150 147 104 122 137 141 144 121 107 213
283 140 151 266 272 284 294 292 312 307 255 273 210 144 134 145 142 123 122 117 113 115 118 111 110 109 102 69 100 151 158 127 122 135 146 132 125 71 39 84 148 176 203 235
245 182 184 268 281 310 311 300 291 353 33 54 58 73 123 135 141 145 146 153 150 139 136 134 137 145 167 155 136 120 108 112 122 138 147 159 161 158 90 4 263 232 238 221
220 189 189 235 246 233 267 287 280 205 234 136 103 62 98 137 149 153 156 161 158 152 135 137 148 162 177 154 152 131 125 131 143 151 190 203 189 178 150 51 352 350 284 274